User: anonymous   Login
Location: Morehead State University
(38.1872°N, 83.4339°W)
Time: 06:51:00
(UTC-05:00)
Language:

Okean 2 - Orbit

View from above orbital plane
View from above orbital plane
View from above satellite
View from above satellite

Ground track
Ground track

The orbit data is extracted from the following two-line orbital elements,

1 20510U 90018A   16345.51058293  .00000501  00000-0  39351-4 0  9999
2 20510  82.5150 352.5988 0010753 257.9365 262.8100 14.98767772453182
Epoch (UTC): 10 December 2016 12:15:14
Eccentricity: 0.0010753
inclination: 82.5150°
perigee height: 563 km
apogee height: 578 km
right ascension of ascending node: 352.5988°
argument of perigee: 257.9365°
revolutions per day: 14.98767772
mean anomaly at epoch: 262.8100°
orbit number at epoch: 45318

The dashed part of the orbit path shows where the satellite is in the earth's shadow,  

DLR